[[{"header":{"parameterUnit":"m.s-1","parameterCategory":1,"la1":30.2991,"la2":30.254,"lo1":-89.0895,"lo2":-89.0444,"dy":0.0017,"dx":0.0017,"nx":28,"ny":28,"refTime":"2023-10-10T03:00:00:Z","depth":0,"parameterNumber":2,"parameterNumberName":"U-component_of_WINDS"},"data":[0,0,0,0,0,0,0,0,0,0,0,0,0,0,0,0,0,0,0,0,0,0,0,0,0,0,0,0,0,0,0,0,0,0,0,0,0,0,0,0,0,0,0,0,0,0,0,0,0,0,0,0,0,0,0,0,0,0,2.1328,2.1329,0,2.1385,2.1386,2.1386,2.1371,2.137,2.1369,2.1368,2.1424,2.1426,2.1429,0,0,0,0,0,0,0,0,0,0,0,0,0,2.1203,2.1206,2.1328,2.1329,2.133,2.1385,2.1386,2.1386,2.1371,2.137,2.1369,2.1367,2.1423,2.1426,2.1429,0,0,0,0,0,0,0,0,0,0,0,0,0,2.1259,2.1207,2.1328,2.1329,2.133,2.1385,2.1386,2.1387,2.1372,2.137,2.1368,2.1367,2.1422,2.1426,2.1429,2.1487,0,0,2.1441,2.1443,0,0,0,0,0,0,0,0,2.1255,2.1263,2.1328,2.1329,2.133,2.1369,2.1362,2.142,2.1372,2.1356,2.1368,2.1366,2.1407,2.1412,2.1426,2.1489,2.1492,2.1441,2.1444,2.1445,2.1446,0,0,0,0,0,0,0,2.1252,2.1261,2.1351,2.1329,2.133,2.1325,2.1331,2.1373,2.139,2.1357,2.1356,2.1363,2.1407,2.1422,2.1427,2.1492,2.1441,2.1445,2.1447,2.1448,2.1602,2.1603,0,0,0,0,0,0,2.1248,2.1258,2.1349,2.1352,2.1288,2.1329,2.1335,2.1358,2.1389,2.1393,2.1364,2.1362,2.1417,2.1423,2.1429,2.1496,2.1445,2.1449,2.1451,2.16,2.1602,2.1604,0,0,0,0,0,0,2.1245,2.1256,2.1347,2.1305,2.1316,2.1333,2.1358,2.136,2.1376,2.1395,2.1398,2.1377,2.1416,2.1424,2.1472,2.1498,2.1451,2.1454,2.1598,2.1601,2.1603,2.1631,0,0,0,0,0,0,2.1242,2.1255,2.1278,2.1305,2.1318,2.139,2.136,2.1363,2.1383,2.138,2.1408,2.1411,2.1415,2.1466,2.1476,2.1502,2.1457,2.1596,2.1599,2.1602,2.1628,2.1634,2.164,0,0,0,0,0,2.1237,2.1284,2.1279,2.1291,2.1348,2.1391,2.1398,2.1403,2.1385,2.1407,2.1419,2.141,2.1494,2.1471,2.1482,2.151,2.1594,2.1598,2.1602,2.1625,2.1633,2.164,0,0,0,0,0,0,2.126,2.1288,2.1283,2.134,2.1363,2.1389,2.1417,2.1411,2.144,2.1436,2.144,2.1446,2.1494,2.1507,2.1482,2.1565,2.1541,2.1547,2.1555,2.1563,2.1568,2.1564,2.146,0,0,0,0,0,2.1271,2.1305,2.1328,2.1376,2.1388,2.14,2.142,2.1421,2.1445,2.1454,2.147,2.1493,2.1523,2.1544,2.1574,2.163,2.1634,2.1654,2.166,2.1665,2.167,2.1697,2.1705,2.1617,2.1617,2.1617,0,0,2.1296,2.1315,2.1337,2.1381,2.1399,2.1432,2.1409,2.1446,2.147,2.146,2.1505,2.1518,2.1543,2.1594,2.1618,2.1606,2.1695,2.167,2.1673,2.1676,2.1702,2.171,2.1718,2.162,2.162,2.1619,0,0,2.1357,2.1376,2.1417,2.1435,2.1463,2.147,2.148,2.1506,2.1513,2.1559,2.1551,2.1579,2.1634,2.1651,2.1667,2.1732,2.1723,2.1741,2.1772,2.1799,2.1806,2.1812,2.1832,2.184,2.1746,2.1747,2.1747,0,2.1384,2.1435,2.1439,2.1476,2.1495,2.1486,2.1526,2.1544,2.1579,2.1591,2.1578,2.1644,2.1661,2.1715,2.173,2.1744,2.1754,2.1738,2.1805,2.1811,2.1816,2.1836,2.1844,2.1748,2.1748,2.1748,2.1748,0,2.1465,2.15,2.153,2.1564,2.1586,2.1624,2.1633,2.1654,2.1653,2.1661,2.1706,2.1726,2.1758,2.1771,2.1771,2.1824,2.1816,2.1804,2.1779,2.1827,2.1845,2.1853,2.1751,2.175,2.175,2.1749,0,0,2.1543,2.1577,2.1587,2.1601,2.163,2.1656,2.1693,2.1725,2.1742,2.1766,2.1796,2.1841,2.1829,2.1847,2.1848,2.1872,2.1918,2.1856,2.1857,2.1865,2.1975,2.1983,2.1992,2.1913,2.1915,2.1916,2.1972,0,2.1605,2.167,2.1674,2.1733,2.1764,2.1755,2.1787,2.1806,2.1815,2.1841,2.185,2.1881,2.1864,2.1875,2.1898,2.1908,2.194,2.1904,2.1939,2.194,2.1931,2.2002,2.201,2.2063,2.198,2.1981,2.1982,0,2.1686,2.1712,2.1774,2.1795,2.1808,2.1837,2.1864,2.189,2.1911,2.1916,2.1935,2.1932,2.1967,2.1942,2.199,2.1965,2.198,2.1987,2.1989,2.1991,2.1963,2.2004,2.208,2.2087,2.1994,2.1993,2.1992,0,2.1734,2.1784,2.1827,2.1839,2.1866,2.1885,2.1897,2.1917,2.1934,2.1958,2.1969,2.1997,2.2012,2.2033,2.2036,2.2018,2.2083,2.206,2.2086,2.2086,2.2099,2.2098,2.2177,2.2112,2.2111,2.2111,2.2111,0,2.1801,2.1839,2.1848,2.1874,2.1915,2.1918,2.1958,2.1968,2.1985,2.2011,2.2006,2.2031,2.2035,2.206,2.2063,2.2101,2.2108,2.2111,2.2111,2.2111,2.211,2.2119,2.2115,2.2113,2.2113,2.2112,2.2112,0,2.1861,2.1869,2.1914,2.1935,2.1941,2.197,2.1987,2.2011,2.2018,2.2051,2.2059,2.207,2.2099,2.2105,2.214,2.2142,2.2185,2.2183,2.2178,2.2177,2.2202,2.2199,2.2288,2.2299,2.2229,2.2229,2.223,0,2.1903,2.1932,2.1955,2.1972,2.1984,2.2013,2.203,2.2034,2.2052,2.2077,2.2097,2.2125,2.2148,2.2195,2.2205,2.2231,2.2227,2.2257,2.2231,2.2229,2.2225,2.2223,2.2224,2.2261,2.2262,2.2263,2.2263,0,2.1976,2.1978,2.2004,2.203,2.2051,2.2072,2.2092,2.2106,2.2112,2.2132,2.2162,2.2179,2.2214,2.2241,2.2267,2.2277,2.227,2.2271,2.2278,2.2277,2.2272,2.2273,2.2189,2.2269,2.2268,2.2268,2.2268,2.2267,2.2027,2.205,2.2069,2.2098,2.2113,2.2131,2.2153,2.2162,2.2187,2.2216,2.2216,2.2247,2.2265,2.2298,2.231,2.2334,2.2324,2.2335,2.2338,2.234,2.2341,2.227,2.2339,2.2339,2.2338,2.2338,2.2338,0,2.2097,2.2109,2.2134,2.2162,2.2183,2.2175,2.2196,2.2214,2.2242,2.2259,2.2281,2.2314,2.234,2.2351,2.2376,2.2393,2.239,2.2399,2.2397,2.2399,2.2349,2.234,2.2401,2.2401,2.2401,2.2401,2.2401,2.2401,2.2136,2.2175,2.2178,2.2223,2.2234,2.2265,2.2277,2.2293,2.2307,2.2343,2.2364,2.2372,2.2386,2.2412,2.2434,2.2437,2.2445,2.2455,2.2456,2.2409,2.2403,2.2397,2.2387,2.2458,2.2458,2.2503,2.2504,2.2504]},{"header":{"parameterUnit":"m.s-1","parameterCategory":1,"la1":30.2991,"la2":30.254,"lo1":-89.0895,"lo2":-89.0444,"dy":0.0017,"dx":0.0017,"nx":28,"ny":28,"refTime":"2023-10-10T03:00:00:Z","depth":0,"parameterNumber":3,"parameterNumberName":"V-component_of_WINDS"},"data":[0,0,0,0,0,0,0,0,0,0,0,0,0,0,0,0,0,0,0,0,0,0,0,0,0,0,0,0,0,0,0,0,0,0,0,0,0,0,0,0,0,0,0,0,0,0,0,0,0,0,0,0,0,0,0,0,0,0,-0.4148,-0.4146,0,-0.4043,-0.4042,-0.404,-0.4012,-0.4012,-0.4013,-0.4013,-0.3902,-0.3898,-0.3895,0,0,0,0,0,0,0,0,0,0,0,0,0,-0.432,-0.4317,-0.4148,-0.4146,-0.4145,-0.4043,-0.4041,-0.404,-0.4011,-0.4012,-0.4013,-0.4014,-0.3903,-0.3899,-0.3894,0,0,0,0,0,0,0,0,0,0,0,0,0,-0.4233,-0.4316,-0.4148,-0.4119,-0.4115,-0.4043,-0.4041,-0.404,-0.4011,-0.4012,-0.4013,-0.4014,-0.3904,-0.3899,-0.3894,-0.3842,0,0,-0.3878,-0.3875,0,0,0,0,0,0,0,0,-0.4238,-0.4227,-0.4124,-0.412,-0.4116,-0.4041,-0.4061,-0.3973,-0.4011,-0.4051,-0.4013,-0.4015,-0.3947,-0.3938,-0.3916,-0.3837,-0.3832,-0.3877,-0.3874,-0.3872,-0.387,0,0,0,0,0,0,0,-0.4244,-0.4231,-0.4106,-0.4123,-0.4118,-0.411,-0.4098,-0.4044,-0.3995,-0.4047,-0.4045,-0.4033,-0.3945,-0.3922,-0.3914,-0.3831,-0.3877,-0.3872,-0.3869,-0.3867,-0.3704,-0.3703,0,0,0,0,0,0,-0.4256,-0.4236,-0.4109,-0.4103,-0.4181,-0.4106,-0.4093,-0.4064,-0.3995,-0.3986,-0.4032,-0.4032,-0.393,-0.392,-0.391,-0.3845,-0.3872,-0.3867,-0.3864,-0.3706,-0.3704,-0.3703,0,0,0,0,0,0,-0.4259,-0.4245,-0.4114,-0.4169,-0.4152,-0.4102,-0.407,-0.4062,-0.4038,-0.3984,-0.3975,-0.4018,-0.3931,-0.3917,-0.386,-0.3841,-0.3864,-0.3859,-0.3707,-0.3705,-0.3704,-0.3715,0,0,0,0,0,0,-0.4264,-0.4246,-0.4227,-0.4169,-0.4149,-0.4066,-0.4069,-0.4059,-0.403,-0.4028,-0.3968,-0.3959,-0.393,-0.3868,-0.3854,-0.3834,-0.3855,-0.3708,-0.3706,-0.3704,-0.3716,-0.3714,-0.3712,0,0,0,0,0,-0.4271,-0.4233,-0.4226,-0.4211,-0.4124,-0.4065,-0.4054,-0.4023,-0.4028,-0.4008,-0.3973,-0.3961,-0.3845,-0.3862,-0.3847,-0.3824,-0.3709,-0.3707,-0.3704,-0.3717,-0.3714,-0.3712,0,0,0,0,0,0,-0.4288,-0.4225,-0.4216,-0.4159,-0.4118,-0.4061,-0.4034,-0.4021,-0.3977,-0.3977,-0.3939,-0.3926,-0.3871,-0.3842,-0.3862,-0.3771,-0.3777,-0.3771,-0.3792,-0.3789,-0.3787,-0.3795,-0.3851,0,0,0,0,0,-0.4286,-0.4245,-0.4191,-0.4146,-0.4126,-0.4084,-0.4057,-0.4037,-0.3993,-0.3975,-0.3936,-0.3892,-0.3846,-0.3816,-0.377,-0.3712,-0.3698,-0.3689,-0.3687,-0.3686,-0.3681,-0.3648,-0.3643,-0.3695,-0.3695,-0.3695,0,0,-0.4279,-0.424,-0.4216,-0.4148,-0.4114,-0.4072,-0.4069,-0.4024,-0.3992,-0.3967,-0.3911,-0.3881,-0.383,-0.3772,-0.3745,-0.3746,-0.3664,-0.3683,-0.3682,-0.3678,-0.3645,-0.364,-0.3636,-0.3693,-0.3693,-0.3693,0,0,-0.4245,-0.4212,-0.4171,-0.4137,-0.4087,-0.4059,-0.4049,-0.3994,-0.3974,-0.3918,-0.3898,-0.3859,-0.3781,-0.3745,-0.3716,-0.3672,-0.3658,-0.3658,-0.3647,-0.3615,-0.3611,-0.3608,-0.3591,-0.3586,-0.3653,-0.3653,-0.3653,0,-0.4243,-0.418,-0.415,-0.4107,-0.4078,-0.4056,-0.4013,-0.3982,-0.3918,-0.3898,-0.3901,-0.3803,-0.3766,-0.37,-0.369,-0.3667,-0.3654,-0.3664,-0.3615,-0.361,-0.3606,-0.359,-0.3584,-0.3654,-0.3654,-0.3654,-0.3654,0,-0.418,-0.4136,-0.4109,-0.405,-0.4018,-0.3975,-0.3938,-0.3909,-0.3892,-0.3864,-0.3807,-0.3763,-0.3709,-0.3692,-0.3674,-0.3623,-0.3626,-0.3622,-0.3627,-0.3602,-0.3587,-0.358,-0.3654,-0.3654,-0.3654,-0.3654,0,0,-0.4152,-0.4079,-0.407,-0.4043,-0.3986,-0.3951,-0.3908,-0.3856,-0.3832,-0.3789,-0.3751,-0.3686,-0.3683,-0.365,-0.3629,-0.3602,-0.3569,-0.3601,-0.36,-0.3596,-0.3509,-0.3512,-0.3505,-0.3561,-0.3559,-0.3558,-0.3514,0,-0.4111,-0.4033,-0.4006,-0.3941,-0.3901,-0.388,-0.3842,-0.3803,-0.3776,-0.3736,-0.3706,-0.3661,-0.366,-0.3641,-0.3613,-0.3579,-0.3551,-0.3582,-0.3523,-0.3522,-0.3536,-0.3497,-0.3499,-0.3459,-0.3507,-0.3506,-0.3505,0,-0.4052,-0.4011,-0.3942,-0.3892,-0.3874,-0.384,-0.3791,-0.3754,-0.3709,-0.3692,-0.3657,-0.3638,-0.3591,-0.36,-0.3534,-0.3556,-0.353,-0.351,-0.3508,-0.35,-0.3511,-0.3487,-0.3445,-0.3439,-0.3495,-0.3496,-0.3497,0,-0.4038,-0.3965,-0.3915,-0.3893,-0.3833,-0.381,-0.3784,-0.374,-0.3711,-0.3668,-0.3649,-0.36,-0.3574,-0.3536,-0.3505,-0.3514,-0.3441,-0.3448,-0.3424,-0.3425,-0.3408,-0.341,-0.3361,-0.3394,-0.3394,-0.3394,-0.3394,0,-0.3994,-0.3953,-0.3908,-0.3877,-0.3831,-0.38,-0.3754,-0.3727,-0.3688,-0.3651,-0.363,-0.3595,-0.3556,-0.3516,-0.3491,-0.344,-0.3428,-0.3412,-0.3405,-0.3413,-0.3415,-0.3395,-0.3396,-0.3393,-0.3393,-0.3393,-0.3394,0,-0.397,-0.3939,-0.3883,-0.3832,-0.3818,-0.3785,-0.3741,-0.371,-0.3683,-0.3636,-0.3623,-0.358,-0.3532,-0.3498,-0.3435,-0.3418,-0.3363,-0.3357,-0.3379,-0.3376,-0.3354,-0.3356,-0.329,-0.3279,-0.332,-0.332,-0.332,0,-0.3944,-0.3912,-0.3858,-0.3833,-0.3807,-0.3766,-0.3737,-0.3706,-0.3676,-0.3624,-0.3599,-0.355,-0.3509,-0.3433,-0.3395,-0.3347,-0.3339,-0.332,-0.3332,-0.3341,-0.3338,-0.334,-0.3337,-0.3317,-0.3317,-0.3317,-0.3317,0,-0.39,-0.3887,-0.3847,-0.3801,-0.3768,-0.373,-0.3692,-0.3672,-0.3634,-0.3602,-0.3554,-0.3522,-0.346,-0.3411,-0.336,-0.3331,-0.3317,-0.3313,-0.3305,-0.3312,-0.3326,-0.3318,-0.3373,-0.3315,-0.3315,-0.3315,-0.3315,-0.3315,-0.3873,-0.3844,-0.3802,-0.3759,-0.3727,-0.3693,-0.3661,-0.3632,-0.3591,-0.3539,-0.3523,-0.3473,-0.3429,-0.3359,-0.3331,-0.329,-0.3291,-0.3279,-0.3276,-0.3274,-0.3274,-0.3334,-0.3281,-0.3281,-0.3281,-0.3281,-0.3281,0,-0.3828,-0.3801,-0.3761,-0.371,-0.3675,-0.3668,-0.3625,-0.3597,-0.3553,-0.3515,-0.3476,-0.342,-0.3373,-0.3333,-0.3284,-0.326,-0.3252,-0.3248,-0.3249,-0.3243,-0.3276,-0.3288,-0.3255,-0.3255,-0.3255,-0.3255,-0.3255,-0.3255,-0.38,-0.3751,-0.3733,-0.3668,-0.3641,-0.3593,-0.3569,-0.3537,-0.3506,-0.3446,-0.3408,-0.3383,-0.3343,-0.3292,-0.3248,-0.3238,-0.322,-0.3218,-0.3205,-0.3237,-0.324,-0.3243,-0.3254,-0.3214,-0.3214,-0.3175,-0.3175,-0.3174]}]]